| time (UTC) | temp C | wind direction | speed KPH | gust KPH | rain 1hr cm | rain 24hr cm | rain mn cm | humidity % | barometer mb |
| 20260507092803 | 9 | 54 | 0.0 | 0.0 | 0.00 | 0.00 | 0.00 | 93 | 1016.1 |
| 20260507092300 | 9 | 54 | 0.0 | 0.0 | 0.00 | 0.00 | 0.00 | 93 | 1016.1 |
| 20260507091756 | 10 | 54 | 0.0 | 0.0 | 0.00 | 0.00 | 0.00 | 93 | 1016.1 |
| 20260507091253 | 10 | 54 | 0.0 | 0.0 | 0.00 | 0.00 | 0.00 | 93 | 1016.1 |
| 20260507090748 | 10 | 54 | 0.0 | 0.0 | 0.00 | 0.00 | 0.00 | 93 | 1016.1 |
| 20260507090245 | 10 | 54 | 0.0 | 0.0 | 0.00 | 0.00 | 0.00 | 92 | 1016.1 |
| 20260507085742 | 10 | 54 | 0.0 | 0.0 | 0.00 | 0.00 | 0.00 | 92 | 1016.1 |
| 20260507085239 | 10 | 54 | 0.0 | 0.0 | 0.00 | 0.00 | 0.00 | 92 | 1016.1 |
| 20260507084736 | 10 | 54 | 0.0 | 0.0 | 0.00 | 0.00 | 0.00 | 92 | 1016.1 |
| 20260507084232 | 10 | 54 | 0.0 | 0.0 | 0.00 | 0.00 | 0.00 | 92 | 1016.1 |
| 20260507083730 | 10 | 54 | 0.0 | 0.0 | 0.00 | 0.00 | 0.00 | 91 | 1016.1 |
| 20260507083226 | 10 | 54 | 0.0 | 0.0 | 0.00 | 0.00 | 0.00 | 91 | 1016.1 |
| 20260507082722 | 10 | 54 | 0.0 | 0.0 | 0.00 | 0.00 | 0.00 | 91 | 1016.1 |
| 20260507082218 | 10 | 54 | 0.0 | 0.0 | 0.00 | 0.00 | 0.00 | 91 | 1016.1 |
| 20260507081715 | 11 | 54 | 0.0 | 0.0 | 0.00 | 0.00 | 0.00 | 90 | 1015.7 |
| 20260507081211 | 11 | 54 | 0.0 | 0.0 | 0.00 | 0.00 | 0.00 | 91 | 1016.1 |
| 20260507080708 | 11 | 54 | 0.0 | 0.0 | 0.00 | 0.00 | 0.00 | 90 | 1016.1 |
| 20260507080204 | 11 | 54 | 0.0 | 0.0 | 0.00 | 0.00 | 0.00 | 90 | 1015.7 |
| 20260507075659 | 11 | 54 | 0.0 | 0.0 | 0.00 | 0.00 | 0.00 | 90 | 1015.7 |
| 20260507075156 | 11 | 54 | 0.0 | 0.0 | 0.00 | 0.00 | 0.00 | 90 | 1016.1 |
| 20260507074652 | 11 | 54 | 0.0 | 0.0 | 0.00 | 0.00 | 0.00 | 90 | 1015.7 |
| 20260507074151 | 11 | 54 | 0.0 | 0.0 | 0.00 | 0.00 | 0.00 | 90 | 1015.7 |
| 20260507073647 | 11 | 54 | 0.0 | 0.0 | 0.00 | 0.00 | 0.00 | 90 | 1015.4 |
| 20260507073143 | 11 | 54 | 0.0 | 0.0 | 0.00 | 0.00 | 0.00 | 90 | 1015.4 |
| 20260507072641 | 11 | 54 | 0.0 | 0.0 | 0.00 | 0.00 | 0.00 | 90 | 1016.1 |
| 20260507072138 | 11 | 54 | 0.0 | 0.0 | 0.00 | 0.00 | 0.00 | 90 | 1016.1 |
| 20260507071636 | 11 | 54 | 0.0 | 0.0 | 0.00 | 0.00 | 0.00 | 90 | 1016.1 |
| 20260507071132 | 11 | 54 | 0.0 | 0.0 | 0.00 | 0.00 | 0.00 | 90 | 1016.1 |
| 20260507070629 | 11 | 54 | 0.0 | 0.0 | 0.00 | 0.00 | 0.00 | 89 | 1016.1 |
| 20260507070126 | 11 | 54 | 0.0 | 0.0 | 0.00 | 0.00 | 0.00 | 89 | 1016.1 |
| 20260507065622 | 11 | 54 | 0.0 | 0.0 | 0.00 | 0.00 | 0.00 | 89 | 1015.7 |
| 20260507065119 | 11 | 54 | 0.0 | 0.0 | 0.00 | 0.00 | 0.00 | 89 | 1015.7 |
| 20260507064617 | 11 | 54 | 0.0 | 0.0 | 0.00 | 0.00 | 0.00 | 88 | 1015.7 |
| 20260507064116 | 11 | 54 | 0.0 | 0.0 | 0.00 | 0.00 | 0.00 | 88 | 1015.7 |
| 20260507063613 | 11 | 54 | 0.0 | 0.0 | 0.00 | 0.00 | 0.00 | 88 | 1015.7 |
| 20260507063110 | 11 | 54 | 0.0 | 0.0 | 0.00 | 0.00 | 0.00 | 88 | 1015.7 |
| 20260507062606 | 11 | 54 | 0.0 | 0.0 | 0.00 | 0.00 | 0.00 | 87 | 1015.7 |
| 20260507062104 | 11 | 54 | 0.0 | 0.0 | 0.00 | 0.00 | 0.00 | 87 | 1015.7 |
| 20260507061601 | 11 | 54 | 0.0 | 0.0 | 0.00 | 0.00 | 0.00 | 87 | 1015.4 |
| 20260507061100 | 11 | 54 | 0.0 | 0.0 | 0.00 | 0.00 | 0.00 | 87 | 1015.4 |
| 20260507060557 | 12 | 54 | 0.0 | 0.0 | 0.00 | 0.00 | 0.00 | 87 | 1015.4 |
| 20260507060053 | 12 | 54 | 0.0 | 0.0 | 0.00 | 0.00 | 0.00 | 86 | 1015.4 |
| 20260507055553 | 12 | 54 | 0.0 | 0.0 | 0.00 | 0.00 | 0.00 | 86 | 1015.1 |
| 20260507055050 | 12 | 54 | 0.0 | 0.0 | 0.00 | 0.00 | 0.00 | 86 | 1015.1 |
| 20260507054546 | 12 | 54 | 0.0 | 0.0 | 0.00 | 0.00 | 0.00 | 85 | 1015.1 |
| 20260507054043 | 12 | 54 | 0.0 | 0.0 | 0.00 | 0.00 | 0.00 | 85 | 1015.1 |
| 20260507053541 | 12 | 54 | 0.0 | 0.0 | 0.00 | 0.00 | 0.00 | 84 | 1015.1 |
| 20260507053040 | 12 | 54 | 0.0 | 0.0 | 0.00 | 0.00 | 0.00 | 84 | 1015.1 |
| 20260507052537 | 12 | 54 | 0.0 | 0.0 | 0.00 | 0.00 | 0.00 | 84 | 1015.1 |
| 20260507052033 | 12 | 54 | 0.0 | 0.0 | 0.00 | 0.00 | 0.00 | 83 | 1015.1 |
| 20260507051531 | 12 | 54 | 0.0 | 0.0 | 0.00 | 0.00 | 0.00 | 83 | 1015.4 |
| 20260507051028 | 12 | 54 | 0.0 | 0.0 | 0.00 | 0.00 | 0.00 | 83 | 1015.1 |
| 20260507050524 | 12 | 54 | 0.0 | 0.0 | 0.00 | 0.00 | 0.00 | 83 | 1015.1 |
| 20260507050021 | 12 | 54 | 0.0 | 0.0 | 0.00 | 0.05 | 0.05 | 82 | 1015.1 |
| 20260507045518 | 13 | 54 | 0.0 | 0.0 | 0.00 | 0.05 | 0.05 | 81 | 1015.4 |
| 20260507045015 | 13 | 54 | 0.0 | 0.0 | 0.00 | 0.05 | 0.05 | 81 | 1015.4 |
| 20260507044512 | 13 | 54 | 0.0 | 0.0 | 0.00 | 0.05 | 0.05 | 80 | 1015.4 |
| 20260507044008 | 13 | 54 | 0.0 | 0.0 | 0.00 | 0.05 | 0.05 | 80 | 1015.4 |
| 20260507043504 | 13 | 54 | 0.0 | 0.0 | 0.00 | 0.05 | 0.05 | 79 | 1015.4 |
| 20260507043001 | 13 | 54 | 3.2 | 3.2 | 0.00 | 0.05 | 0.05 | 79 | 1015.4 |
| 20260507042458 | 13 | 54 | 0.0 | 0.0 | 0.00 | 0.05 | 0.05 | 78 | 1015.4 |
| 20260507041953 | 13 | 54 | 3.2 | 3.2 | 0.00 | 0.05 | 0.05 | 78 | 1015.4 |
| 20260507041450 | 13 | 63 | 0.0 | 0.0 | 0.00 | 0.05 | 0.05 | 77 | 1015.1 |
| 20260507040947 | 14 | 84 | 0.0 | 0.0 | 0.00 | 0.05 | 0.05 | 76 | 1015.4 |
| 20260507040443 | 14 | 29 | 3.2 | 3.2 | 0.00 | 0.05 | 0.05 | 76 | 1015.4 |
| 20260507035939 | 14 | 60 | 0.0 | 0.0 | 0.00 | 0.05 | 0.05 | 76 | 1015.4 |
| 20260507035436 | 14 | 61 | 0.0 | 0.0 | 0.00 | 0.05 | 0.05 | 76 | 1015.4 |
| 20260507034933 | 14 | 76 | 0.0 | 0.0 | 0.00 | 0.05 | 0.05 | 76 | 1015.4 |
| 20260507034430 | 14 | 68 | 0.0 | 0.0 | 0.00 | 0.05 | 0.05 | 76 | 1015.7 |
| 20260507033928 | 14 | 312 | 3.2 | 3.2 | 0.00 | 0.05 | 0.05 | 75 | 1015.4 |
| 20260507033425 | 15 | 78 | 3.2 | 3.2 | 0.00 | 0.05 | 0.05 | 75 | 1015.4 |
| 20260507032922 | 15 | 54 | 6.4 | 6.4 | 0.00 | 0.05 | 0.05 | 75 | 1015.4 |
| 20260507032419 | 15 | 38 | 3.2 | 3.2 | 0.00 | 0.05 | 0.05 | 75 | 1015.4 |
| 20260507031915 | 15 | 300 | 3.2 | 3.2 | 0.00 | 0.05 | 0.05 | 75 | 1015.7 |
| 20260507031412 | 15 | 35 | 0.0 | 0.0 | 0.00 | 0.05 | 0.05 | 75 | 1015.1 |
| 20260507030908 | 15 | 72 | 3.2 | 3.2 | 0.00 | 0.05 | 0.05 | 75 | 1015.4 |
| 20260507030406 | 15 | 49 | 3.2 | 3.2 | 0.00 | 0.05 | 0.05 | 75 | 1015.1 |
| 20260507025902 | 15 | 46 | 3.2 | 3.2 | 0.00 | 0.05 | 0.05 | 75 | 1015.4 |
| 20260507025400 | 15 | 19 | 0.0 | 0.0 | 0.00 | 0.05 | 0.05 | 75 | 1015.1 |
| 20260507024858 | 15 | 20 | 6.4 | 6.4 | 0.00 | 0.05 | 0.05 | 74 | 1015.1 |
| 20260507024355 | 15 | 54 | 3.2 | 3.2 | 0.00 | 0.05 | 0.05 | 74 | 1015.1 |
| 20260507023850 | 15 | 17 | 3.2 | 3.2 | 0.00 | 0.05 | 0.05 | 74 | 1015.1 |
| 20260507023347 | 15 | 21 | 4.8 | 4.8 | 0.00 | 0.05 | 0.05 | 73 | 1015.1 |
| 20260507022845 | 15 | 336 | 3.2 | 3.2 | 0.00 | 0.05 | 0.05 | 73 | 1014.7 |
| 20260507022341 | 15 | 342 | 3.2 | 3.2 | 0.00 | 0.05 | 0.05 | 73 | 1014.7 |
| 20260507021837 | 15 | 288 | 3.2 | 3.2 | 0.00 | 0.05 | 0.05 | 73 | 1014.7 |
| 20260507021332 | 15 | 29 | 3.2 | 3.2 | 0.00 | 0.05 | 0.05 | 73 | 1014.7 |
| 20260507020831 | 15 | 60 | 9.7 | 11.3 | 0.00 | 0.05 | 0.05 | 73 | 1014.4 |
| 20260507020327 | 15 | 23 | 4.8 | 4.8 | 0.00 | 0.05 | 0.05 | 74 | 1014.4 |
| 20260507015824 | 15 | 42 | 3.2 | 3.2 | 0.00 | 0.05 | 0.05 | 74 | 1014.4 |
| 20260507015322 | 16 | 288 | 3.2 | 3.2 | 0.00 | 0.05 | 0.05 | 74 | 1014.1 |
| 20260507014819 | 16 | 51 | 3.2 | 3.2 | 0.00 | 0.05 | 0.05 | 74 | 1013.7 |
| 20260507014315 | 16 | 355 | 3.2 | 3.2 | 0.00 | 0.05 | 0.05 | 74 | 1013.4 |
| 20260507013812 | 16 | 355 | 3.2 | 3.2 | 0.00 | 0.05 | 0.05 | 75 | 1013.7 |
| 20260507013309 | 16 | 347 | 3.2 | 3.2 | 0.00 | 0.05 | 0.05 | 74 | 1013.4 |
| 20260507012807 | 16 | 14 | 3.2 | 3.2 | 0.00 | 0.05 | 0.05 | 74 | 1013.0 |
| 20260507012305 | 16 | 24 | 4.8 | 4.8 | 0.00 | 0.05 | 0.05 | 74 | 1013.4 |
| 20260507011800 | 16 | 50 | 4.8 | 4.8 | 0.00 | 0.05 | 0.05 | 74 | 1013.4 |
| 20260507011256 | 16 | 42 | 3.2 | 3.2 | 0.00 | 0.05 | 0.05 | 75 | 1013.0 |
| 20260507010755 | 16 | 78 | 3.2 | 3.2 | 0.00 | 0.05 | 0.05 | 75 | 1013.4 |
| 20260507010252 | 16 | 44 | 0.0 | 0.0 | 0.00 | 0.05 | 0.05 | 75 | 1012.7 |
| 20260507005749 | 16 | 6 | 3.2 | 3.2 | 0.00 | 0.05 | 0.05 | 74 | 1012.7 |
| 20260507005246 | 16 | 61 | 4.8 | 4.8 | 0.00 | 0.05 | 0.05 | 73 | 1012.7 |
| 20260507004742 | 16 | 30 | 3.2 | 3.2 | 0.00 | 0.05 | 0.05 | 74 | 1013.0 |
| 20260507004240 | 16 | 306 | 4.8 | 4.8 | 0.00 | 0.05 | 0.05 | 74 | 1012.7 |
| 20260507003736 | 16 | 42 | 3.2 | 3.2 | 0.00 | 0.05 | 0.05 | 74 | 1012.7 |
| 20260507003231 | 16 | 72 | 3.2 | 3.2 | 0.00 | 0.05 | 0.05 | 73 | 1012.7 |
| 20260507002728 | 17 | 42 | 4.8 | 4.8 | 0.00 | 0.05 | 0.05 | 73 | 1012.7 |
| 20260507002224 | 17 | 19 | 3.2 | 3.2 | 0.00 | 0.05 | 0.05 | 73 | 1012.7 |
| 20260507001721 | 17 | 57 | 4.8 | 4.8 | 0.00 | 0.05 | 0.05 | 72 | 1012.7 |
| 20260507001218 | 17 | 47 | 3.2 | 3.2 | 0.00 | 0.05 | 0.05 | 73 | 1012.4 |
| 20260507000714 | 17 | 55 | 4.8 | 4.8 | 0.00 | 0.05 | 0.05 | 72 | 1012.0 |
| 20260507000212 | 17 | 300 | 3.2 | 3.2 | 0.00 | 0.05 | 0.05 | 73 | 1012.0 |
| 20260506235707 | 17 | 18 | 3.2 | 3.2 | 0.00 | 0.05 | 0.05 | 72 | 1012.0 |
| 20260506235202 | 17 | 54 | 3.2 | 3.2 | 0.00 | 0.05 | 0.05 | 72 | 1012.0 |
| 20260506234700 | 17 | 37 | 9.7 | 9.7 | 0.00 | 0.05 | 0.05 | 71 | 1012.0 |
| 20260506234157 | 17 | 54 | 3.2 | 3.2 | 0.00 | 0.05 | 0.05 | 72 | 1012.0 |
| 20260506233654 | 17 | 30 | 3.2 | 3.2 | 0.00 | 0.05 | 0.05 | 72 | 1012.4 |
| 20260506233151 | 17 | 81 | 3.2 | 3.2 | 0.00 | 0.05 | 0.05 | 72 | 1012.0 |
| 20260506232647 | 17 | 12 | 8.0 | 9.7 | 0.00 | 0.05 | 0.05 | 72 | 1012.0 |
| 20260506232142 | 17 | 72 | 3.2 | 3.2 | 0.00 | 0.05 | 0.05 | 70 | 1012.0 |
| 20260506231640 | 17 | 41 | 4.8 | 4.8 | 0.00 | 0.05 | 0.05 | 72 | 1012.0 |
| 20260506231138 | 17 | 55 | 0.0 | 0.0 | 0.00 | 0.05 | 0.05 | 73 | 1011.6 |
| 20260506230635 | 17 | 60 | 11.3 | 11.3 | 0.00 | 0.05 | 0.05 | 71 | 1012.0 |
| 20260506230132 | 18 | 318 | 4.8 | 4.8 | 0.00 | 0.05 | 0.05 | 71 | 1011.6 |
| 20260506225628 | 18 | 312 | 3.2 | 3.2 | 0.00 | 0.05 | 0.05 | 70 | 1011.6 |
| 20260506225125 | 18 | 359 | 4.8 | 4.8 | 0.00 | 0.05 | 0.05 | 70 | 1011.6 |
| 20260506224621 | 18 | 288 | 4.8 | 4.8 | 0.00 | 0.05 | 0.05 | 70 | 1011.6 |
| 20260506224118 | 18 | 72 | 8.0 | 9.7 | 0.00 | 0.05 | 0.05 | 70 | 1011.6 |
| 20260506223614 | 18 | 12 | 4.8 | 6.4 | 0.00 | 0.05 | 0.05 | 69 | 1011.6 |
| 20260506223110 | 18 | 44 | 6.4 | 6.4 | 0.00 | 0.05 | 0.05 | 69 | 1011.6 |
| 20260506222607 | 18 | 43 | 4.8 | 6.4 | 0.00 | 0.05 | 0.05 | 71 | 1011.6 |
| 20260506222104 | 18 | 28 | 4.8 | 6.4 | 0.00 | 0.05 | 0.05 | 69 | 1011.6 |
| 20260506221602 | 18 | 312 | 8.0 | 8.0 | 0.00 | 0.05 | 0.05 | 69 | 1011.6 |
| 20260506221059 | 18 | 302 | 0.0 | 0.0 | 0.00 | 0.05 | 0.05 | 68 | 1011.2 |
| 20260506220555 | 18 | 30 | 4.8 | 4.8 | 0.00 | 0.05 | 0.05 | 69 | 1011.2 |
| 20260506220051 | 18 | 31 | 6.4 | 6.4 | 0.00 | 0.05 | 0.05 | 68 | 1011.6 |
| 20260506215548 | 18 | 326 | 4.8 | 6.4 | 0.00 | 0.05 | 0.05 | 68 | 1011.2 |
| 20260506215043 | 18 | 36 | 3.2 | 3.2 | 0.00 | 0.05 | 0.05 | 69 | 1011.2 |
| 20260506214541 | 18 | 33 | 3.2 | 3.2 | 0.00 | 0.05 | 0.05 | 68 | 1011.6 |
| 20260506214038 | 18 | 72 | 3.2 | 3.2 | 0.00 | 0.05 | 0.05 | 69 | 1011.6 |
| 20260506213536 | 18 | 26 | 3.2 | 3.2 | 0.00 | 0.05 | 0.05 | 69 | 1011.6 |
| 20260506213033 | 18 | 321 | 3.2 | 3.2 | 0.00 | 0.05 | 0.05 | 67 | 1011.6 |
| 20260506212529 | 18 | 318 | 0.0 | 0.0 | 0.00 | 0.05 | 0.05 | 71 | 1012.4 |
| 20260506212024 | 17 | 10 | 0.0 | 0.0 | 0.00 | 0.05 | 0.05 | 69 | 1012.4 |
| 20260506211520 | 18 | 66 | 6.4 | 8.0 | 0.00 | 0.05 | 0.05 | 70 | 1011.6 |
| 20260506211018 | 18 | 24 | 0.0 | 0.0 | 0.00 | 0.05 | 0.05 | 71 | 1011.2 |
| 20260506210514 | 18 | 330 | 4.8 | 4.8 | 0.00 | 0.05 | 0.05 | 69 | 1011.2 |
| 20260506210011 | 18 | 54 | 4.8 | 4.8 | 0.00 | 0.05 | 0.05 | 68 | 1011.6 |
| 20260506205508 | 17 | 306 | 3.2 | 3.2 | 0.00 | 0.05 | 0.05 | 69 | 1011.6 |
| 20260506205003 | 17 | 66 | 6.4 | 6.4 | 0.00 | 0.05 | 0.05 | 71 | 1012.0 |
| 20260506204502 | 17 | 320 | 1.6 | 1.6 | 0.00 | 0.05 | 0.05 | 72 | 1012.0 |
| 20260506203958 | 17 | 66 | 0.0 | 0.0 | 0.00 | 0.05 | 0.05 | 71 | 1012.0 |
| 20260506203456 | 18 | 29 | 4.8 | 4.8 | 0.00 | 0.05 | 0.05 | 68 | 1012.0 |
| 20260506202947 | 17 | 31 | 3.2 | 3.2 | 0.00 | 0.05 | 0.05 | 71 | 1012.0 |
| 20260506202444 | 17 | 312 | 3.2 | 3.2 | 0.00 | 0.05 | 0.05 | 68 | 1012.4 |
| 20260506201940 | 17 | 31 | 4.8 | 4.8 | 0.00 | 0.05 | 0.05 | 70 | 1012.4 |
| 20260506201438 | 17 | 96 | 0.0 | 0.0 | 0.00 | 0.05 | 0.05 | 70 | 1012.7 |
| 20260506200935 | 17 | 312 | 0.0 | 0.0 | 0.00 | 0.05 | 0.05 | 69 | 1012.7 |
| 20260506200431 | 17 | 78 | 3.2 | 3.2 | 0.00 | 0.05 | 0.05 | 70 | 1012.7 |
| 20260506195927 | 17 | 95 | 0.0 | 0.0 | 0.00 | 0.05 | 0.05 | 71 | 1012.7 |
| 20260506195425 | 17 | 300 | 0.0 | 0.0 | 0.00 | 0.05 | 0.05 | 69 | 1012.7 |
| 20260506194921 | 17 | 294 | 0.0 | 0.0 | 0.00 | 0.05 | 0.05 | 72 | 1012.7 |
| 20260506194418 | 16 | 294 | 3.2 | 3.2 | 0.00 | 0.05 | 0.05 | 70 | 1012.7 |
| 20260506193915 | 16 | 40 | 0.0 | 0.0 | 0.00 | 0.05 | 0.05 | 74 | 1012.7 |
| 20260506193412 | 16 | 48 | 0.0 | 0.0 | 0.00 | 0.05 | 0.05 | 72 | 1012.7 |
| 20260506192908 | 16 | 78 | 3.2 | 3.2 | 0.00 | 0.05 | 0.05 | 73 | 1013.0 |
| 20260506192405 | 16 | 30 | 0.0 | 0.0 | 0.00 | 0.05 | 0.05 | 73 | 1013.0 |
| 20260506191902 | 16 | 31 | 3.2 | 3.2 | 0.00 | 0.05 | 0.05 | 72 | 1012.7 |
| 20260506191358 | 16 | 75 | 0.0 | 0.0 | 0.00 | 0.05 | 0.05 | 73 | 1012.7 |
| 20260506190855 | 16 | 78 | 0.0 | 0.0 | 0.00 | 0.05 | 0.05 | 72 | 1012.7 |
| 20260506190352 | 16 | 62 | 0.0 | 0.0 | 0.00 | 0.05 | 0.05 | 74 | 1012.4 |
| 20260506185848 | 15 | 42 | 8.0 | 8.0 | 0.00 | 0.05 | 0.05 | 74 | 1012.4 |
| 20260506185345 | 15 | 306 | 6.4 | 8.0 | 0.00 | 0.05 | 0.05 | 74 | 1012.4 |
| 20260506184842 | 15 | 318 | 3.2 | 3.2 | 0.00 | 0.05 | 0.05 | 75 | 1012.4 |
| 20260506184339 | 15 | 252 | 4.8 | 4.8 | 0.00 | 0.05 | 0.05 | 76 | 1012.0 |
| 20260506183837 | 15 | 330 | 3.2 | 3.2 | 0.00 | 0.05 | 0.05 | 76 | 1011.6 |
| 20260506183332 | 15 | 31 | 8.0 | 9.7 | 0.00 | 0.05 | 0.05 | 75 | 1012.4 |
| 20260506182830 | 15 | 23 | 3.2 | 3.2 | 0.00 | 0.05 | 0.05 | 77 | 1012.0 |
| 20260506182326 | 14 | 25 | 4.8 | 4.8 | 0.00 | 0.05 | 0.05 | 75 | 1012.4 |
| 20260506181824 | 14 | 60 | 4.8 | 6.4 | 0.00 | 0.05 | 0.05 | 77 | 1012.4 |
| 20260506181322 | 14 | 24 | 6.4 | 6.4 | 0.00 | 0.05 | 0.05 | 76 | 1012.4 |
| 20260506180819 | 14 | 51 | 8.0 | 9.7 | 0.00 | 0.05 | 0.05 | 77 | 1012.4 |
| 20260506180315 | 13 | 324 | 3.2 | 3.2 | 0.00 | 0.05 | 0.05 | 79 | 1012.4 |
| 20260506175811 | 13 | 48 | 3.2 | 3.2 | 0.00 | 0.05 | 0.05 | 81 | 1012.4 |
| 20260506175308 | 13 | 6 | 4.8 | 4.8 | 0.00 | 0.05 | 0.05 | 79 | 1012.4 |
| 20260506174801 | 13 | 66 | 3.2 | 3.2 | 0.00 | 0.05 | 0.05 | 80 | 1012.4 |
| 20260506174258 | 13 | 40 | 8.0 | 9.7 | 0.00 | 0.05 | 0.05 | 80 | 1012.0 |
| 20260506173755 | 13 | 30 | 8.0 | 8.0 | 0.00 | 0.05 | 0.05 | 81 | 1012.0 |
| 20260506173252 | 13 | 30 | 8.0 | 8.0 | 0.00 | 0.05 | 0.05 | 81 | 1012.4 |
| 20260506172749 | 13 | 66 | 3.2 | 3.2 | 0.00 | 0.05 | 0.05 | 82 | 1012.4 |
| 20260506172245 | 13 | 38 | 4.8 | 6.4 | 0.00 | 0.05 | 0.05 | 82 | 1012.7 |
| 20260506171743 | 12 | 346 | 6.4 | 6.4 | 0.00 | 0.05 | 0.05 | 82 | 1012.7 |
| 20260506171240 | 12 | 30 | 8.0 | 9.7 | 0.00 | 0.05 | 0.05 | 83 | 1012.7 |
| 20260506170738 | 12 | 29 | 4.8 | 6.4 | 0.00 | 0.05 | 0.05 | 84 | 1013.0 |
| 20260506170234 | 12 | 72 | 4.8 | 4.8 | 0.00 | 0.05 | 0.05 | 86 | 1013.0 |
| 20260506165732 | 12 | 68 | 3.2 | 3.2 | 0.00 | 0.05 | 0.05 | 86 | 1013.4 |
| 20260506165229 | 12 | 68 | 3.2 | 3.2 | 0.00 | 0.05 | 0.05 | 85 | 1013.4 |
| 20260506164726 | 12 | 0 | 0.0 | 0.0 | 0.00 | 0.05 | 0.05 | 85 | 1013.4 |
| 20260506164223 | 12 | 49 | 3.2 | 3.2 | 0.00 | 0.05 | 0.05 | 85 | 1013.4 |
| 20260506163720 | 12 | 314 | 3.2 | 3.2 | 0.00 | 0.05 | 0.05 | 86 | 1013.0 |
| 20260506163215 | 12 | 359 | 4.8 | 4.8 | 0.00 | 0.05 | 0.05 | 86 | 1012.7 |
| 20260506162711 | 12 | 318 | 3.2 | 3.2 | 0.00 | 0.05 | 0.05 | 86 | 1012.7 |
| 20260506162208 | 12 | 42 | 3.2 | 3.2 | 0.00 | 0.05 | 0.05 | 87 | 1012.7 |
| 20260506161705 | 12 | 300 | 3.2 | 3.2 | 0.00 | 0.05 | 0.05 | 87 | 1013.0 |
| 20260506161202 | 12 | 288 | 3.2 | 3.2 | 0.00 | 0.05 | 0.05 | 88 | 1013.4 |
| 20260506160700 | 12 | 324 | 3.2 | 3.2 | 0.00 | 0.05 | 0.05 | 88 | 1012.7 |
| 20260506160156 | 12 | 288 | 1.6 | 1.6 | 0.00 | 0.05 | 0.05 | 88 | 1012.7 |
| 20260506155655 | 12 | 48 | 6.4 | 6.4 | 0.05 | 0.05 | 0.05 | 88 | 1012.4 |
| 20260506155152 | 12 | 288 | 0.0 | 0.0 | 0.05 | 0.05 | 0.05 | 87 | 1014.1 |
| 20260506153259 | 12 | 276 | 0.0 | 0.0 | 0.05 | 0.05 | 0.05 | 88 | 1014.1 |
| 20260506152756 | 12 | 276 | 0.0 | 0.0 | 0.00 | 0.00 | 0.00 | 87 | 1014.1 |
| 20260506152253 | 12 | 318 | 4.8 | 6.4 | 0.00 | 0.00 | 0.00 | 86 | 1014.1 |
| 20260506151752 | 12 | 318 | 3.2 | 3.2 | 0.00 | 0.00 | 0.00 | 86 | 1014.1 |
| 20260506151248 | 12 | 337 | 0.0 | 0.0 | 0.00 | 0.00 | 0.00 | 85 | 1014.4 |
| 20260506150745 | 12 | 306 | 0.0 | 0.0 | 0.00 | 0.00 | 0.00 | 84 | 1014.1 |
| 20260506150242 | 12 | 42 | 0.0 | 0.0 | 0.00 | 0.00 | 0.00 | 85 | 1013.4 |
| 20260506145739 | 12 | 75 | 0.0 | 0.0 | 0.00 | 0.00 | 0.00 | 85 | 1013.4 |
| 20260506145235 | 12 | 306 | 0.0 | 0.0 | 0.00 | 0.00 | 0.00 | 85 | 1012.7 |
| 20260506144733 | 11 | 354 | 3.2 | 3.2 | 0.00 | 0.00 | 0.00 | 86 | 1012.4 |
| 20260506144230 | 11 | 72 | 8.0 | 9.7 | 0.00 | 0.00 | 0.00 | 86 | 1012.4 |
| 20260506143727 | 12 | 27 | 8.0 | 8.0 | 0.00 | 0.00 | 0.00 | 85 | 1013.0 |
| 20260506143225 | 12 | 66 | 3.2 | 3.2 | 0.00 | 0.00 | 0.00 | 85 | 1013.0 |
| 20260506142723 | 12 | 72 | 1.6 | 1.6 | 0.00 | 0.00 | 0.00 | 84 | 1013.0 |
| 20260506142221 | 12 | 294 | 3.2 | 3.2 | 0.00 | 0.00 | 0.00 | 84 | 1013.0 |
| 20260506141719 | 12 | 312 | 0.0 | 0.0 | 0.00 | 0.00 | 0.00 | 84 | 1013.0 |
| 20260506141217 | 12 | 37 | 3.2 | 3.2 | 0.00 | 0.00 | 0.00 | 84 | 1012.7 |
| 20260506140714 | 12 | 306 | 4.8 | 4.8 | 0.00 | 0.00 | 0.00 | 84 | 1013.0 |
| 20260506140211 | 12 | 12 | 3.2 | 3.2 | 0.00 | 0.00 | 0.00 | 83 | 1013.0 |
| 20260506135708 | 12 | 40 | 3.2 | 3.2 | 0.00 | 0.00 | 0.00 | 84 | 1012.0 |
| 20260506135204 | 11 | 318 | 4.8 | 4.8 | 0.00 | 0.00 | 0.00 | 83 | 1012.0 |
| 20260506134701 | 12 | 56 | 6.4 | 8.0 | 0.00 | 0.00 | 0.00 | 83 | 1012.0 |
| 20260506134157 | 11 | 348 | 4.8 | 4.8 | 0.00 | 0.00 | 0.00 | 84 | 1012.0 |
| 20260506133654 | 11 | 357 | 6.4 | 8.0 | 0.00 | 0.00 | 0.00 | 84 | 1012.0 |
| 20260506133151 | 11 | 318 | 3.2 | 3.2 | 0.00 | 0.00 | 0.00 | 84 | 1012.4 |
| 20260506132648 | 11 | 72 | 3.2 | 3.2 | 0.00 | 0.00 | 0.00 | 84 | 1012.4 |
| 20260506132145 | 11 | 336 | 6.4 | 6.4 | 0.00 | 0.00 | 0.00 | 84 | 1012.0 |
| 20260506131643 | 11 | 318 | 6.4 | 6.4 | 0.00 | 0.00 | 0.00 | 84 | 1012.0 |
| 20260506131139 | 11 | 306 | 6.4 | 6.4 | 0.00 | 0.00 | 0.00 | 84 | 1011.6 |
| 20260506130636 | 11 | 67 | 8.0 | 8.0 | 0.00 | 0.00 | 0.00 | 84 | 1012.0 |
| 20260506130133 | 11 | 12 | 0.0 | 0.0 | 0.00 | 0.00 | 0.00 | 84 | 1011.6 |
| 20260506125631 | 11 | 324 | 0.0 | 0.0 | 0.00 | 0.00 | 0.00 | 84 | 1011.6 |
| 20260506125128 | 11 | 326 | 3.2 | 3.2 | 0.00 | 0.00 | 0.00 | 85 | 1011.6 |
| 20260506124626 | 11 | 318 | 3.2 | 3.2 | 0.00 | 0.00 | 0.00 | 85 | 1011.2 |
| 20260506124124 | 11 | 44 | 4.8 | 4.8 | 0.00 | 0.00 | 0.00 | 84 | 1011.6 |
| 20260506123621 | 11 | 324 | 3.2 | 3.2 | 0.00 | 0.00 | 0.00 | 85 | 1011.6 |
| 20260506123120 | 11 | 54 | 3.2 | 3.2 | 0.00 | 0.00 | 0.00 | 84 | 1011.2 |
| 20260506122616 | 11 | 318 | 6.4 | 6.4 | 0.00 | 0.00 | 0.00 | 84 | 1011.2 |
| 20260506122114 | 11 | 318 | 3.2 | 3.2 | 0.00 | 0.00 | 0.00 | 84 | 1011.2 |
| 20260506121612 | 11 | 324 | 3.2 | 3.2 | 0.00 | 0.00 | 0.00 | 84 | 1011.2 |
| 20260506121108 | 11 | 324 | 4.8 | 4.8 | 0.00 | 0.00 | 0.00 | 84 | 1011.6 |
| 20260506120606 | 11 | 300 | 6.4 | 6.4 | 0.00 | 0.00 | 0.00 | 84 | 1011.6 |
| 20260506115601 | 11 | 294 | 6.4 | 6.4 | 0.00 | 0.00 | 0.00 | 83 | 1011.2 |
| 20260506115059 | 11 | 312 | 4.8 | 4.8 | 0.00 | 0.00 | 0.00 | 83 | 1011.2 |
| 20260506114556 | 11 | 306 | 8.0 | 8.0 | 0.00 | 0.00 | 0.00 | 83 | 1011.2 |
| 20260506114054 | 11 | 300 | 4.8 | 4.8 | 0.00 | 0.00 | 0.00 | 82 | 1010.9 |
| 20260506113552 | 11 | 312 | 6.4 | 6.4 | 0.00 | 0.00 | 0.00 | 82 | 1010.9 |
| 20260506113049 | 11 | 318 | 9.7 | 9.7 | 0.00 | 0.00 | 0.00 | 82 | 1010.2 |
| 20260506112545 | 12 | 336 | 3.2 | 3.2 | 0.00 | 0.00 | 0.00 | 81 | 1010.2 |
| 20260506112043 | 12 | 26 | 6.4 | 6.4 | 0.00 | 0.00 | 0.00 | 80 | 1010.2 |
| 20260506111541 | 12 | 312 | 6.4 | 6.4 | 0.00 | 0.00 | 0.00 | 79 | 1010.2 |
| 20260506111038 | 12 | 318 | 8.0 | 9.7 | 0.00 | 0.00 | 0.00 | 78 | 1010.2 |
| 20260506110535 | 12 | 331 | 3.2 | 3.2 | 0.00 | 0.00 | 0.00 | 77 | 1010.2 |
| 20260506110033 | 12 | 288 | 3.2 | 3.2 | 0.00 | 0.00 | 0.00 | 77 | 1009.9 |
| 20260506105528 | 12 | 67 | 4.8 | 4.8 | 0.00 | 0.00 | 0.00 | 77 | 1009.9 |
| 20260506105026 | 12 | 330 | 4.8 | 4.8 | 0.00 | 0.00 | 0.00 | 77 | 1009.9 |
| 20260506104524 | 12 | 72 | 6.4 | 6.4 | 0.00 | 0.00 | 0.00 | 77 | 1009.9 |
| 20260506104021 | 12 | 288 | 4.8 | 4.8 | 0.00 | 0.00 | 0.00 | 77 | 1009.9 |
| 20260506103518 | 12 | 36 | 6.4 | 8.0 | 0.00 | 0.00 | 0.00 | 77 | 1009.9 |
| 20260506103015 | 13 | 318 | 4.8 | 4.8 | 0.00 | 0.00 | 0.00 | 76 | 1009.6 |
| 20260506102514 | 13 | 300 | 4.8 | 6.4 | 0.00 | 0.00 | 0.00 | 76 | 1009.6 |
| 20260506102010 | 13 | 324 | 6.4 | 6.4 | 0.00 | 0.00 | 0.00 | 75 | 1009.6 |
| 20260506101507 | 13 | 72 | 3.2 | 3.2 | 0.00 | 0.00 | 0.00 | 76 | 1009.9 |
| 20260506101004 | 13 | 312 | 4.8 | 4.8 | 0.00 | 0.00 | 0.00 | 76 | 1009.6 |
| 20260506100502 | 13 | 288 | 4.8 | 6.4 | 0.00 | 0.00 | 0.00 | 76 | 1009.2 |
| 20260506100000 | 13 | 325 | 4.8 | 4.8 | 0.00 | 0.00 | 0.00 | 76 | 1008.9 |
| 20260506095459 | 13 | 332 | 3.2 | 3.2 | 0.00 | 0.00 | 0.00 | 76 | 1008.9 |
| 20260506094954 | 13 | 286 | 4.8 | 4.8 | 0.00 | 0.00 | 0.00 | 76 | 1009.2 |
| 20260506094453 | 13 | 47 | 1.6 | 1.6 | 0.00 | 0.00 | 0.00 | 76 | 1008.9 |
| 20260506093950 | 13 | 342 | 3.2 | 3.2 | 0.00 | 0.00 | 0.00 | 75 | 1009.2 |
| 20260506093448 | 13 | 331 | 4.8 | 4.8 | 0.00 | 0.00 | 0.00 | 76 | 1008.9 |
| 20260506092945 | 13 | 342 | 4.8 | 4.8 | 0.00 | 0.00 | 0.00 | 76 | 1008.9 |